| time (UTC) | temp F | wind direction | speed MPH | gust MPH | rain 1hr in | rain 24hr in | rain mn in | humidity % | barometer mb |
| 20260504160117 | 59 | 270 | 2.0 | 4.0 | 0.00 | 0.00 | 0.00 | 48 | 1006.7 |
| 20260504151116 | 59 | 338 | 4.0 | 7.0 | 0.00 | 0.00 | 0.00 | 48 | 1006.8 |
| 20260504150116 | 59 | 23 | 2.0 | 4.0 | 0.00 | 0.00 | 0.00 | 48 | 1006.9 |
| 20260504141136 | 57 | 293 | 4.0 | 7.0 | 0.00 | 0.00 | 0.00 | 50 | 1006.8 |
| 20260504140116 | 56 | 0 | 3.0 | 5.0 | 0.00 | 0.00 | 0.00 | 51 | 1007.0 |
| 20260504120116 | 50 | 225 | 1.0 | 2.0 | 0.00 | 0.00 | 0.00 | 67 | 1008.0 |
| 20260504110116 | 47 | 0.0 | 2.0 | 0.00 | 0.00 | 0.00 | 76 | 1008.3 | |
| 20260504100136 | 43 | 0.0 | 0.0 | 0.00 | 0.00 | 0.00 | 83 | 1007.9 | |
| 20260504090116 | 42 | 0.0 | 0.0 | 0.00 | 0.00 | 0.00 | 82 | 1007.8 | |
| 20260504081116 | 42 | 0.0 | 0.0 | 0.00 | 0.00 | 0.00 | 76 | 1008.1 | |
| 20260504080116 | 42 | 0.0 | 0.0 | 0.00 | 0.00 | 0.00 | 76 | 1008.2 | |
| 20260504070116 | 41 | 0.0 | 0.0 | 0.00 | 0.00 | 0.00 | 84 | 1007.9 | |
| 20260504060116 | 43 | 0.0 | 0.0 | 0.00 | 0.00 | 0.00 | 66 | 1008.2 | |
| 20260504050136 | 41 | 0.0 | 0.0 | 0.00 | 0.00 | 0.00 | 68 | 1008.1 | |
| 20260504045115 | 40 | 0.0 | 0.0 | 0.00 | 0.00 | 0.00 | 64 | 1008.1 | |
| 20260504044116 | 40 | 0.0 | 0.0 | 0.00 | 0.00 | 0.00 | 66 | 1008.1 | |
| 20260504043116 | 40 | 0.0 | 0.0 | 0.00 | 0.00 | 0.00 | 67 | 1008.1 | |
| 20260504042116 | 40 | 0.0 | 0.0 | 0.00 | 0.00 | 0.00 | 68 | 1008.1 | |
| 20260504041116 | 39 | 0.0 | 0.0 | 0.00 | 0.00 | 0.00 | 69 | 1008.0 | |
| 20260504040116 | 39 | 0.0 | 0.0 | 0.00 | 0.00 | 0.00 | 68 | 1008.0 | |
| 20260504035116 | 39 | 0.0 | 0.0 | 0.00 | 0.00 | 0.00 | 70 | 1008.0 | |
| 20260504034117 | 39 | 0.0 | 0.0 | 0.00 | 0.00 | 0.00 | 71 | 1007.9 | |
| 20260504033117 | 39 | 0.0 | 0.0 | 0.00 | 0.00 | 0.00 | 68 | 1007.8 | |
| 20260504032116 | 39 | 0.0 | 0.0 | 0.00 | 0.00 | 0.00 | 74 | 1007.9 | |
| 20260504031157 | 39 | 0.0 | 0.0 | 0.00 | 0.00 | 0.00 | 72 | 1007.8 | |
| 20260504030117 | 39 | 0.0 | 0.0 | 0.00 | 0.00 | 0.00 | 70 | 1007.7 | |
| 20260504025117 | 39 | 0.0 | 0.0 | 0.00 | 0.00 | 0.00 | 75 | 1007.8 | |
| 20260504024157 | 39 | 0.0 | 0.0 | 0.00 | 0.00 | 0.00 | 75 | 1007.7 | |
| 20260504023137 | 40 | 0.0 | 0.0 | 0.00 | 0.00 | 0.00 | 73 | 1007.8 | |
| 20260504022137 | 40 | 0.0 | 0.0 | 0.00 | 0.00 | 0.00 | 71 | 1007.9 | |
| 20260504021116 | 41 | 0.0 | 0.0 | 0.00 | 0.00 | 0.00 | 68 | 1007.8 | |
| 20260504020117 | 41 | 0.0 | 0.0 | 0.00 | 0.00 | 0.00 | 64 | 1007.7 | |
| 20260504015116 | 41 | 0.0 | 0.0 | 0.00 | 0.00 | 0.00 | 64 | 1007.7 | |
| 20260504014137 | 41 | 0.0 | 0.0 | 0.00 | 0.00 | 0.00 | 65 | 1007.7 | |
| 20260504013117 | 41 | 0.0 | 0.0 | 0.00 | 0.00 | 0.00 | 66 | 1007.5 | |
| 20260504012117 | 41 | 0.0 | 0.0 | 0.00 | 0.00 | 0.00 | 66 | 1007.4 | |
| 20260504011117 | 42 | 0.0 | 0.0 | 0.00 | 0.00 | 0.00 | 65 | 1007.3 | |
| 20260504010117 | 42 | 0.0 | 0.0 | 0.00 | 0.00 | 0.00 | 63 | 1007.2 | |
| 20260504005116 | 42 | 0.0 | 0.0 | 0.00 | 0.00 | 0.00 | 60 | 1007.1 | |
| 20260504004116 | 43 | 0.0 | 0.0 | 0.00 | 0.00 | 0.00 | 62 | 1007.1 | |
| 20260504003137 | 43 | 0.0 | 0.0 | 0.00 | 0.00 | 0.00 | 61 | 1007.1 | |
| 20260504002117 | 44 | 0.0 | 0.0 | 0.00 | 0.00 | 0.00 | 59 | 1006.9 | |
| 20260504001117 | 44 | 0.0 | 0.0 | 0.00 | 0.00 | 0.00 | 55 | 1006.8 | |
| 20260504000116 | 44 | 0.0 | 0.0 | 0.00 | 0.00 | 0.00 | 55 | 1006.7 | |
| 20260503235116 | 45 | 0.0 | 0.0 | 0.00 | 0.00 | 0.00 | 55 | 1006.7 | |
| 20260503234116 | 45 | 0.0 | 0.0 | 0.00 | 0.00 | 0.00 | 56 | 1006.6 | |
| 20260503233116 | 45 | 0.0 | 0.0 | 0.00 | 0.00 | 0.00 | 56 | 1006.5 | |
| 20260503232117 | 46 | 0.0 | 0.0 | 0.00 | 0.00 | 0.00 | 54 | 1006.5 | |
| 20260503231116 | 46 | 248 | 1.0 | 1.0 | 0.00 | 0.00 | 0.00 | 52 | 1006.5 |
| 20260503230136 | 46 | 0.0 | 1.0 | 0.00 | 0.00 | 0.00 | 54 | 1006.5 | |
| 20260503225116 | 47 | 270 | 1.0 | 2.0 | 0.00 | 0.00 | 0.00 | 53 | 1006.4 |
| 20260503224137 | 47 | 0.0 | 1.0 | 0.00 | 0.00 | 0.00 | 53 | 1006.5 | |
| 20260503223157 | 47 | 338 | 5.0 | 7.0 | 0.00 | 0.00 | 0.00 | 51 | 1006.5 |
| 20260503222117 | 47 | 225 | 1.0 | 3.0 | 0.00 | 0.00 | 0.00 | 53 | 1006.5 |
| 20260503221116 | 47 | 293 | 3.0 | 5.0 | 0.00 | 0.00 | 0.00 | 53 | 1006.4 |
| 20260503220116 | 47 | 0 | 4.0 | 8.0 | 0.00 | 0.00 | 0.00 | 53 | 1006.3 |
| 20260503215116 | 47 | 293 | 4.0 | 6.0 | 0.00 | 0.01 | 0.00 | 52 | 1006.2 |
| 20260503214116 | 47 | 338 | 6.0 | 9.0 | 0.00 | 0.01 | 0.00 | 50 | 1006.2 |
| 20260503213157 | 47 | 315 | 1.0 | 3.0 | 0.00 | 0.01 | 0.00 | 51 | 1006.2 |
| 20260503212116 | 47 | 293 | 3.0 | 7.0 | 0.00 | 0.01 | 0.00 | 50 | 1006.1 |
| 20260503211217 | 47 | 315 | 7.0 | 15.0 | 0.00 | 0.01 | 0.00 | 49 | 1006.1 |
| 20260503210116 | 48 | 338 | 5.0 | 8.0 | 0.00 | 0.01 | 0.00 | 50 | 1006.0 |
| 20260503205116 | 48 | 315 | 6.0 | 15.0 | 0.00 | 0.01 | 0.00 | 48 | 1006.0 |
| 20260503204117 | 48 | 225 | 3.0 | 9.0 | 0.00 | 0.01 | 0.00 | 49 | 1006.0 |
| 20260503203116 | 48 | 338 | 7.0 | 11.0 | 0.00 | 0.01 | 0.00 | 48 | 1005.9 |
| 20260503202157 | 48 | 338 | 4.0 | 7.0 | 0.00 | 0.01 | 0.00 | 48 | 1005.7 |
| 20260503201116 | 48 | 315 | 5.0 | 12.0 | 0.00 | 0.01 | 0.00 | 46 | 1005.6 |
| 20260503200116 | 48 | 248 | 5.0 | 13.0 | 0.00 | 0.02 | 0.00 | 48 | 1005.7 |
| 20260503195117 | 47 | 270 | 4.0 | 9.0 | 0.00 | 0.03 | 0.00 | 50 | 1005.6 |
| 20260503194116 | 47 | 315 | 4.0 | 10.0 | 0.00 | 0.04 | 0.00 | 46 | 1005.6 |
| 20260503193117 | 48 | 270 | 3.0 | 6.0 | 0.00 | 0.04 | 0.00 | 47 | 1005.7 |
| 20260503192116 | 48 | 270 | 6.0 | 12.0 | 0.00 | 0.05 | 0.00 | 46 | 1005.8 |
| 20260503191117 | 47 | 293 | 6.0 | 16.0 | 0.00 | 0.07 | 0.00 | 49 | 1005.8 |
| 20260503190137 | 47 | 293 | 8.0 | 16.0 | 0.00 | 0.08 | 0.00 | 48 | 1005.9 |
| 20260503185117 | 47 | 315 | 3.0 | 5.0 | 0.00 | 0.08 | 0.00 | 47 | 1005.9 |
| 20260503184116 | 47 | 338 | 6.0 | 10.0 | 0.00 | 0.08 | 0.00 | 46 | 1005.7 |
| 20260503183116 | 48 | 315 | 6.0 | 11.0 | 0.00 | 0.08 | 0.00 | 45 | 1005.8 |
| 20260503182136 | 48 | 338 | 7.0 | 9.0 | 0.00 | 0.08 | 0.00 | 47 | 1005.7 |
| 20260503181116 | 48 | 0 | 3.0 | 5.0 | 0.00 | 0.08 | 0.00 | 48 | 1005.7 |
| 20260503180116 | 48 | 338 | 8.0 | 14.0 | 0.00 | 0.08 | 0.00 | 47 | 1005.6 |
| 20260503175116 | 47 | 338 | 11.0 | 16.0 | 0.00 | 0.08 | 0.00 | 47 | 1005.5 |
| 20260503174116 | 48 | 338 | 7.0 | 13.0 | 0.00 | 0.08 | 0.00 | 47 | 1005.6 |
| 20260503173116 | 47 | 293 | 5.0 | 10.0 | 0.00 | 0.08 | 0.00 | 51 | 1005.6 |
| 20260503172116 | 47 | 315 | 4.0 | 11.0 | 0.00 | 0.08 | 0.00 | 52 | 1005.6 |
| 20260503171116 | 47 | 338 | 10.0 | 16.0 | 0.00 | 0.09 | 0.00 | 53 | 1005.6 |
| 20260503170116 | 47 | 338 | 7.0 | 9.0 | 0.00 | 0.13 | 0.00 | 52 | 1005.7 |